Wayne, NE

11:08 AM CDT on May 27, 2017 (GMT -0500)
Wayne Municipal

Weather History for KLCG - November, 2012

Change the Weather History Date:

Friday, November 23, 2012

  Actual Average (KOFK) Record (KOFK)
Temperature  
Mean Temperature 26 °F -  
Max Temperature 32 °F 40 °F 66 °F (1902)
Min Temperature 20 °F 21 °F -10 °F (1898)
Degree Days  
Heating Degree Days 39    
Moisture  
Dew Point 10 °F    
Average Humidity 53    
Maximum Humidity 71    
Minimum Humidity 30    
Precipitation  
Precipitation 0.00 in - - ()
Sea Level Pressure  
Sea Level Pressure 30.43 in    
Wind  
Wind Speed 20 mph (NW)    
Max Wind Speed 30 mph    
Max Gust Speed 38 mph    
Visibility 10 miles    
Events      
Averages and records for this station are not official NWS values.
T = Trace of Precipitation, MM = Missing Value Source: NWS Daily Summary

Daily Weather History Graph

Daily Weather History Graph

Search for Another Location

Airport or City:

Trip Planner

Search our weather history database for the weather conditions in past years. The results will help you decide how hot, cold, wet, or windy it might be!

Date:

Astronomy

Nov. 23, 2012 Rise Set
Actual Time 7:28 AM CST 4:59 PM CST
Civil Twilight 6:57 AM CST 5:30 PM CST
Nautical Twilight 6:23 AM CST 6:05 PM CST
Astronomical Twilight 5:49 AM CST 6:38 PM CST
Moon 2:19 PM CST (11/23) 2:44 AM CST (11/23)
Length of Visible Light 10h 32m
Length of Day
9h 31m
Waxing Gibbous, 80% of the Moon is Illuminated
Nov 23
Waxing Gibbous
Nov 28
Full
Dec 6
Last Quarter
Dec 13
New
Dec 19
First Quarter

Hourly Weather History & Observations

Time (CST) Temp. Windchill Dew Point Humidity Pressure Visibility Wind Dir Wind Speed Gust Speed Precip Events Conditions
12:15 AM 32.0 °F 17.9 °F 14.4 °F 48% 30.29 in 10.0 mi NW 28.8 mph 38.0 mph N/A   Overcast
12:35 AM 30.9 °F 16.2 °F 14.9 °F 52% 30.30 in 10.0 mi NW 29.9 mph 36.8 mph N/A   Overcast
12:55 AM 30.2 °F 15.9 °F 15.8 °F 55% 30.31 in 10.0 mi NW 26.5 mph 36.8 mph N/A   Overcast
1:15 AM 29.3 °F 16.2 °F 15.4 °F 56% 30.32 in 10.0 mi NNW 20.7 mph 36.8 mph N/A   Overcast
1:35 AM 28.9 °F 15.1 °F 14.5 °F 55% 30.33 in 10.0 mi NNW 23.0 mph 31.1 mph N/A   Overcast
1:55 AM 27.9 °F 15.1 °F 13.1 °F 54% 30.34 in 10.0 mi NNW 18.4 mph 26.5 mph N/A   Overcast
2:15 AM 27.5 °F 14.6 °F 14.0 °F 57% 30.35 in 10.0 mi NNW 18.4 mph 27.6 mph N/A   Overcast
2:35 AM 26.2 °F 14.7 °F 13.8 °F 59% 30.36 in 10.0 mi NNW 13.8 mph 19.6 mph N/A   Scattered Clouds
2:55 AM 25.7 °F 15.1 °F 14.0 °F 61% 30.37 in 10.0 mi NNW 11.5 mph - N/A   Scattered Clouds
3:15 AM 26.6 °F 14.3 °F 14.7 °F 61% 30.37 in 10.0 mi NNW 16.1 mph 24.2 mph N/A   Mostly Cloudy
3:35 AM 26.2 °F 13.4 °F 13.6 °F 59% 30.38 in 10.0 mi NNW 17.3 mph 31.1 mph N/A   Overcast
3:55 AM 25.0 °F 9.5 °F 12.4 °F 59% 30.39 in 10.0 mi NNW 24.2 mph 32.2 mph N/A   Mostly Cloudy
4:15 AM 23.9 °F 9.1 °F 12.2 °F 61% 30.41 in 10.0 mi NNW 20.7 mph 27.6 mph N/A   Scattered Clouds
4:35 AM 23.0 °F 8.0 °F 11.5 °F 61% 30.40 in 10.0 mi NNW 20.7 mph 29.9 mph N/A   Clear
4:55 AM 22.8 °F 8.5 °F 12.2 °F 64% 30.41 in 10.0 mi NW 18.4 mph 25.3 mph N/A   Clear
5:15 AM 22.5 °F 5.9 °F 12.2 °F 65% 30.42 in 10.0 mi NW 25.3 mph 29.9 mph N/A   Clear
5:35 AM 21.7 °F 5.9 °F 11.7 °F 65% 30.42 in 10.0 mi NW 21.9 mph 29.9 mph N/A   Clear
5:55 AM 21.2 °F 4.5 °F 11.8 °F 67% 30.42 in 10.0 mi NNW 24.2 mph 31.1 mph N/A   Clear
6:15 AM 21.0 °F 4.3 °F 12.0 °F 68% 30.43 in 10.0 mi NNW 24.2 mph 29.9 mph N/A   Clear
6:35 AM 20.7 °F 5.7 °F 12.0 °F 69% 30.43 in 10.0 mi NW 18.4 mph 26.5 mph N/A   Clear
6:55 AM 20.5 °F 5.5 °F 12.0 °F 70% 30.43 in 10.0 mi NW 18.4 mph 27.6 mph N/A   Clear
7:15 AM 20.3 °F 4.8 °F 11.8 °F 70% 30.44 in 10.0 mi NNW 19.6 mph 28.8 mph N/A   Clear
7:35 AM 20.3 °F 5.2 °F 11.8 °F 70% 30.46 in 10.0 mi NNW 18.4 mph 25.3 mph N/A   Clear
7:55 AM 20.3 °F 5.7 °F 12.2 °F 71% 30.46 in 10.0 mi NW 17.3 mph 23.0 mph N/A   Clear
8:15 AM 20.7 °F 4.9 °F 12.2 °F 70% 30.46 in 10.0 mi NW 20.7 mph 28.8 mph N/A   Clear
8:35 AM 21.2 °F 6.8 °F 11.8 °F 67% 30.47 in 10.0 mi NNW 17.3 mph 29.9 mph N/A   Clear
8:55 AM 21.7 °F 5.6 °F 11.3 °F 64% 30.49 in 10.0 mi NW 23.0 mph 29.9 mph N/A   Clear
9:15 AM 22.3 °F 5.9 °F 11.3 °F 63% 30.49 in 10.0 mi NW 24.2 mph 33.4 mph N/A   Clear
9:35 AM 22.8 °F 7.0 °F 11.3 °F 61% 30.49 in 10.0 mi NW 23.0 mph 28.8 mph N/A   Clear
9:55 AM 23.9 °F 9.9 °F 11.1 °F 58% 30.50 in 10.0 mi NW 18.4 mph 24.2 mph N/A   Clear
10:15 AM 24.6 °F 11.3 °F 10.8 °F 56% 30.51 in 10.0 mi NW 17.3 mph 25.3 mph N/A   Clear
10:35 AM 25.3 °F 11.4 °F 10.6 °F 54% 30.51 in 10.0 mi NNW 19.6 mph 25.3 mph N/A   Clear
10:55 AM 26.2 °F 11.9 °F 10.2 °F 51% 30.51 in 10.0 mi NNW 21.9 mph 25.3 mph N/A   Clear
11:15 AM 27.5 °F 13.5 °F 10.6 °F 49% 30.51 in 10.0 mi NNW 21.9 mph 26.5 mph N/A   Clear
11:35 AM 27.5 °F 14.6 °F 10.2 °F 48% 30.50 in 10.0 mi NNW 18.4 mph 23.0 mph N/A   Clear
11:55 AM 28.8 °F 16.2 °F 10.0 °F 46% 30.50 in 10.0 mi NNW 18.4 mph 23.0 mph N/A   Clear
12:15 PM 29.5 °F 18.4 °F 9.7 °F 44% 30.49 in 10.0 mi NNW 15.0 mph 20.7 mph N/A   Clear
12:35 PM 29.7 °F 17.1 °F 9.7 °F 43% 30.49 in 10.0 mi NNW 19.6 mph 26.5 mph N/A   Clear
12:55 PM 30.0 °F 18.7 °F 8.8 °F 41% 30.48 in 10.0 mi NW 16.1 mph 29.9 mph N/A   Clear
1:15 PM 30.9 °F 20.2 °F 8.6 °F 39% 30.47 in 10.0 mi NNW 15.0 mph - N/A   Clear
1:35 PM 30.9 °F 18.7 °F 8.1 °F 38% 30.46 in 10.0 mi NW 19.6 mph 24.2 mph N/A   Clear
1:55 PM 31.8 °F 21.4 °F 8.2 °F 37% 30.45 in 10.0 mi NNW 15.0 mph 21.9 mph N/A   Clear
2:15 PM 31.8 °F 21.0 °F 7.5 °F 36% 30.45 in 10.0 mi NNW 16.1 mph 23.0 mph N/A   Clear
2:35 PM 31.8 °F 20.6 °F 7.2 °F 36% 30.44 in 10.0 mi NW 17.3 mph - N/A   Clear
2:55 PM 32.0 °F 21.6 °F 6.3 °F 34% 30.44 in 10.0 mi NW 15.0 mph - N/A   Clear
3:15 PM 32.0 °F 21.2 °F 6.1 °F 34% 30.44 in 10.0 mi NNW 16.1 mph 19.6 mph N/A   Clear
3:35 PM 32.0 °F 22.5 °F 5.4 °F 33% 30.44 in 10.0 mi NNW 12.7 mph - N/A   Clear
3:55 PM 31.8 °F 21.8 °F 3.6 °F 30% 30.44 in 10.0 mi NNW 13.8 mph 19.6 mph N/A   Clear
4:15 PM 31.5 °F 22.9 °F 4.3 °F 32% 30.44 in 10.0 mi NW 10.4 mph - N/A   Clear
4:35 PM 30.2 °F 21.9 °F 4.5 °F 34% 30.44 in 10.0 mi NW 9.2 mph - N/A   Clear
4:55 PM 28.9 °F 22.8 °F 5.2 °F 37% 30.44 in 10.0 mi NNW 5.8 mph - N/A   Clear
5:15 PM 27.0 °F 23.0 °F 5.9 °F 41% 30.44 in 10.0 mi NW 3.5 mph - N/A   Clear
5:35 PM 25.0 °F 19.3 °F 6.4 °F 45% 30.43 in 10.0 mi NW 4.6 mph - N/A   Clear
5:55 PM 23.9 °F 16.8 °F 7.3 °F 49% 30.44 in 10.0 mi WNW 5.8 mph - N/A   Clear
6:15 PM 21.9 °F - 7.2 °F 53% 30.42 in 10.0 mi Calm Calm - N/A   Clear
6:35 PM 21.0 °F - 6.3 °F 53% 30.42 in 10.0 mi Calm Calm - N/A   Clear